Weather History for KCLK - May, 2013

Change the Weather History Date:

Monday, May 20, 2013

  Actual Average (KCSM) Record (KCSM)
Temperature  
Mean Temperature 70 °F -  
Max Temperature 86 °F 80 °F 102 °F (2006)
Min Temperature 55 °F 57 °F 48 °F (1997)
Cooling Degree Days 6    
Growing Degree Days 20 (Base 50)    
Moisture  
Dew Point 51 °F    
Average Humidity 51    
Maximum Humidity 82    
Minimum Humidity 22    
Precipitation  
Precipitation 0.00 in - - ()
Sea Level Pressure  
Sea Level Pressure 29.71 in    
Wind  
Wind Speed 8 mph (NNE)    
Max Wind Speed 16 mph    
Max Gust Speed 21 mph    
Visibility 10 miles    
Events      
Averages and records for this station are not official NWS values.
T = Trace of Precipitation, MM = Missing Value Source: NWS Daily Summary

Daily Weather History Graph

Daily Weather History Graph

Search for Another Location

Airport or City:

Trip Planner

Search our weather history database for the weather conditions in past years. The results will help you decide how hot, cold, wet, or windy it might be!

Date:

Astronomy

May. 20, 2013 Rise Set
Actual Time 6:27 AM CDT 8:37 PM CDT
Civil Twilight 5:58 AM CDT 9:06 PM CDT
Nautical Twilight 5:23 AM CDT 9:41 PM CDT
Astronomical Twilight 4:45 AM CDT 10:19 PM CDT
Moon 3:56 PM CDT (5/20) 3:12 AM CDT (5/20)
Length of Visible Light 15h 07m
Length of Day
14h 10m
Waxing Gibbous, 75% of the Moon is Illuminated
May 20
Waxing Gibbous
May 24
Full
May 31
Last Quarter
Jun 8
New
Jun 16
First Quarter

Hourly Weather History & Observations

Time (CDT) Temp. Heat Index Dew Point Humidity Pressure Visibility Wind Dir Wind Speed Gust Speed Precip Events Conditions
12:15 AM 68.0 °F - 55.4 °F 64% 29.68 in 10.0 mi WNW 3.5 mph - N/A   Clear
12:35 AM 68.0 °F - 55.4 °F 64% 29.69 in 10.0 mi NW 9.2 mph - N/A   Clear
12:55 AM 66.2 °F - 55.4 °F 68% 29.68 in 10.0 mi NNW 9.2 mph - N/A   Clear
1:15 AM 64.4 °F - 53.6 °F 68% 29.67 in 10.0 mi North 10.4 mph - N/A   Clear
1:35 AM 62.6 °F - 53.6 °F 72% 29.67 in 10.0 mi North 9.2 mph - N/A   Clear
1:55 AM 64.4 °F - 51.8 °F 64% 29.66 in 10.0 mi North 9.2 mph - N/A   Clear
2:15 AM 66.2 °F - 51.8 °F 60% 29.67 in 10.0 mi NNW 6.9 mph - N/A   Clear
2:35 AM 64.4 °F - 50.0 °F 59% 29.66 in 10.0 mi North 9.2 mph - N/A   Clear
3:15 AM 62.6 °F - 51.8 °F 68% 29.64 in 10.0 mi NNE 9.2 mph - N/A   Clear
3:35 AM 60.8 °F - 51.8 °F 72% 29.66 in 10.0 mi NE 6.9 mph - N/A   Clear
3:55 AM 60.8 °F - 51.8 °F 72% 29.66 in 10.0 mi NNE 3.5 mph - N/A   Clear
4:35 AM 60.8 °F - 51.8 °F 72% 29.68 in 10.0 mi ENE 4.6 mph - N/A   Clear
4:55 AM 59.0 °F - 51.8 °F 77% 29.68 in 10.0 mi Calm Calm - N/A   Clear
5:15 AM 59.0 °F - 51.8 °F 77% 29.68 in 10.0 mi ESE 3.5 mph - N/A   Clear
5:35 AM 55.4 °F - 50.0 °F 82% 29.70 in 10.0 mi NNW 9.2 mph - N/A   Clear
6:15 AM 55.4 °F - 50.0 °F 82% 29.71 in 10.0 mi NNW 4.6 mph - N/A   Clear
7:15 AM 57.2 °F - 51.8 °F 82% 29.71 in 10.0 mi ENE 9.2 mph - N/A   Clear
7:35 AM 59.0 °F - 51.8 °F 77% 29.72 in 10.0 mi Calm Calm - N/A   Clear
7:55 AM 60.8 °F - 51.8 °F 72% 29.73 in 10.0 mi North 6.9 mph - N/A   Clear
8:15 AM 62.6 °F - 51.8 °F 68% 29.73 in 10.0 mi NNE 8.1 mph - N/A   Clear
8:35 AM 66.2 °F - 51.8 °F 60% 29.73 in 10.0 mi NE 10.4 mph - N/A   Clear
8:55 AM 68.0 °F - 51.8 °F 56% 29.73 in 10.0 mi NE 8.1 mph - N/A   Clear
9:15 AM 69.8 °F - 53.6 °F 56% 29.74 in 10.0 mi NE 6.9 mph - N/A   Clear
9:35 AM 71.6 °F - 53.6 °F 53% 29.74 in 10.0 mi NNE 9.2 mph - N/A   Clear
9:55 AM 73.4 °F - 53.6 °F 50% 29.74 in 10.0 mi NE 9.2 mph - N/A   Clear
10:15 AM 73.4 °F - 53.6 °F 50% 29.75 in 10.0 mi NNE 6.9 mph - N/A   Clear
10:35 AM 75.2 °F - 53.6 °F 47% 29.74 in 10.0 mi NNE 8.1 mph - N/A   Clear
10:55 AM 77.0 °F - 53.6 °F 44% 29.74 in 10.0 mi NNE 4.6 mph - N/A   Clear
11:15 AM 77.0 °F - 51.8 °F 41% 29.74 in 10.0 mi NNE 6.9 mph - N/A   Clear
11:35 AM 78.8 °F - 51.8 °F 39% 29.74 in 10.0 mi NE 9.2 mph - N/A   Clear
11:55 AM 78.8 °F - 50.0 °F 36% 29.74 in 10.0 mi NNE 9.2 mph - N/A   Clear
12:15 PM 78.8 °F - 50.0 °F 36% 29.74 in 10.0 mi NNE 9.2 mph - N/A   Clear
12:35 PM 80.6 °F - 51.8 °F 37% 29.74 in 10.0 mi NE 10.4 mph - N/A   Clear
12:55 PM 80.6 °F - 51.8 °F 37% 29.73 in 10.0 mi ENE 9.2 mph - N/A   Clear
1:15 PM 80.6 °F 80.3 °F 53.6 °F 39% 29.73 in 10.0 mi East 8.1 mph - N/A   Clear
1:35 PM 80.6 °F 80.3 °F 53.6 °F 39% 29.73 in 10.0 mi NE 5.8 mph 10.4 mph N/A   Clear
1:55 PM 82.4 °F - 51.8 °F 35% 29.73 in 10.0 mi NNE 11.5 mph - N/A   Clear
2:15 PM 82.4 °F - 50.0 °F 32% 29.73 in 10.0 mi NE 8.1 mph 17.3 mph N/A   Clear
2:35 PM 82.4 °F - 50.0 °F 32% 29.72 in 10.0 mi NNE 10.4 mph - N/A   Clear
2:55 PM 82.4 °F - 50.0 °F 32% 29.71 in 10.0 mi NNE 8.1 mph - N/A   Clear
3:15 PM 82.4 °F - 50.0 °F 32% 29.70 in 10.0 mi NNE 8.1 mph - N/A   Clear
3:35 PM 84.2 °F - 48.2 °F 29% 29.69 in 10.0 mi North 11.5 mph 18.4 mph N/A   Clear
3:55 PM 82.4 °F - 46.4 °F 28% 29.68 in 10.0 mi North 9.2 mph 17.3 mph N/A   Clear
4:15 PM 84.2 °F - 46.4 °F 27% 29.67 in 10.0 mi NNW 15.0 mph 19.6 mph N/A   Clear
4:35 PM 84.2 °F - 46.4 °F 27% 29.67 in 10.0 mi North 11.5 mph 17.3 mph N/A   Clear
4:55 PM 84.2 °F - 44.6 °F 25% 29.68 in 10.0 mi North 10.4 mph - N/A   Clear
5:15 PM 84.2 °F - 44.6 °F 25% 29.68 in 10.0 mi NNE 9.2 mph - N/A   Clear
5:35 PM 86.0 °F - 42.8 °F 22% 29.68 in 10.0 mi North 11.5 mph 16.1 mph N/A   Clear
5:55 PM 84.2 °F - 44.6 °F 25% 29.68 in 10.0 mi NNE 15.0 mph - N/A   Clear
6:15 PM 82.4 °F - 44.6 °F 26% 29.69 in 10.0 mi North 15.0 mph 19.6 mph N/A   Clear
6:35 PM 80.6 °F - 46.4 °F 30% 29.69 in 10.0 mi North 12.7 mph - N/A   Clear
6:55 PM 80.6 °F - 48.2 °F 32% 29.68 in 10.0 mi NE 16.1 mph 20.7 mph N/A   Clear
7:15 PM 80.6 °F - 48.2 °F 32% 29.68 in 10.0 mi NE 13.8 mph 18.4 mph N/A   Clear
7:35 PM 78.8 °F - 48.2 °F 34% 29.69 in 10.0 mi NNE 13.8 mph - N/A   Clear
7:55 PM 78.8 °F - 50.0 °F 36% 29.71 in 10.0 mi NE 9.2 mph - N/A   Clear
8:15 PM 77.0 °F - 51.8 °F 41% 29.71 in 10.0 mi NE 6.9 mph - N/A   Clear
8:35 PM 73.4 °F - 51.8 °F 47% 29.72 in 10.0 mi NE 6.9 mph - N/A   Clear
8:55 PM 71.6 °F - 53.6 °F 53% 29.73 in 10.0 mi NE 8.1 mph - N/A   Clear
9:15 PM 69.8 °F - 53.6 °F 56% 29.75 in 10.0 mi ENE 8.1 mph - N/A   Clear
9:35 PM 69.8 °F - 53.6 °F 56% 29.76 in 10.0 mi NE 6.9 mph - N/A   Clear
9:55 PM 68.0 °F - 53.6 °F 60% 29.77 in 10.0 mi NE 8.1 mph - N/A   Clear
10:15 PM 66.2 °F - 53.6 °F 64% 29.78 in 10.0 mi ENE 5.8 mph - N/A   Clear
10:35 PM 66.2 °F - 53.6 °F 64% 29.79 in 10.0 mi NE 6.9 mph - N/A   Clear
10:55 PM 64.4 °F - 53.6 °F 68% 29.80 in 10.0 mi ENE 5.8 mph - N/A   Clear
11:15 PM 64.4 °F - 53.6 °F 68% 29.80 in 10.0 mi ENE 5.8 mph - N/A   Clear
11:35 PM 64.4 °F - 53.6 °F 68% 29.81 in 10.0 mi ENE 6.9 mph - N/A   Clear
11:55 PM 64.4 °F - 53.6 °F 68% 29.81 in 10.0 mi NE 6.9 mph - N/A   Clear